Regional Weather Roundup
Issued by NWS

Home | Current Version | Previous Version | Graphics & Text | Print | Product List | Glossary Off
Versions: 1 2 3 4 5 6 7 8 9 10 11 12 13 14 15 16 17 18 19 20 21 22 23 24 25 26 27 28 29 30 31 32 33 34 35 36 37 38 39 40 41 42 43 44 45 46 47 48 49 50

000
ASUS43 KDMX 292104
RWRIA

WEATHER ROUNDUP FOR IOWA
NATIONAL WEATHER SERVICE DES MOINES IA
  ISSUED BY NWS QUAD CITIES IA IL
300 PM CST THU JAN 29 2015

NOTE: "FAIR" INDICATES FEW OR NO CLOUDS BELOW 12,000 FEET WITH NO
SIGNIFICANT WEATHER AND/OR OBSTRUCTIONS TO VISIBILITY.

* - THESE STATIONS ARE NOT NWS STATIONS...THUS NOT UNDER NWS
QUALITY CONTROL.  THEY ALSO DO NOT REPORT WEATHER SUCH
AS PRECIPITATION OR FOG.

IAZ001>003-012>014-020>022-031>034-043>046-292200-
   NORTHWEST IOWA

CITY           SKY/WX    TMP DP  RH WIND       PRES   REMARKS
CARROLL *      CLOUDY    32  25  74 NW22G29   30.37R WCI  19
CHEROKEE *     CLOUDY    32  24  73 NW16G24   30.40R WCI  21
DENNISON *     CLOUDY    34  25  69 N20       30.38R WCI  22
LE MARS *      CLOUDY    34  27  75 NW20G28   30.42R WCI  22
ORANGE CITY *  CLOUDY    32  25  74 N17G23    30.41R WCI  21
SHELDON *      CLOUDY    30  25  80 NW20G29   30.39R WCI  18
SIOUX CITY     CLOUDY    36  25  64 NW21      30.42R WCI  25
SPENCER        CLOUDY    30  21  69 NW23G33   30.38R WCI  17
STORM LAKE *   CLOUDY    32  25  74 N17G23    30.38R WCI  21
$$

IAZ055>058-069>071-079>083-090>094-292200-
   SOUTHWEST IOWA

CITY           SKY/WX    TMP DP  RH WIND       PRES   REMARKS
ATLANTIC *     CLOUDY    36  25  64 N22G30    30.39R WCI  24
AUDUBON *      CLOUDY    34  25  69 NW15G21   30.39R WCI  24
CLARINDA *     CLOUDY    37  25  60 NW16G22   30.42R WCI  28
COUNCIL BLFS * CLOUDY    36  25  64 N20G30    30.40R WCI  25
CRESTON *      CLOUDY    34  27  75 NW23G30   30.36R WCI  22
HARLAN *       CLOUDY    36  28  75 N21       30.43R WCI  24
LAMONI         CLOUDY    37  25  61 N20G32    30.33R WCI  27
RED OAK *      CLOUDY    37  25  60 N17G26    30.41R WCI  28
SHENANDOAH *   CLOUDY    39  25  56 N18G25    30.43R WCI  30
$$

IAZ047>049-059>061-072>074-084-292200-
   CENTRAL IOWA

CITY           SKY/WX    TMP DP  RH WIND       PRES   REMARKS
AMES           CLOUDY    35  22  58 NW29G43   30.32R WCI  22
ANKENY *       CLOUDY    36  25  64 NW16G31   30.32R WCI  26
BOONE *        CLOUDY    34  23  64 NW25G33   30.31R WCI  21
CHARITON *     CLOUDY    36  27  69 NW23G29   30.31R WCI  24
DES MOINES     CLOUDY    37  24  59 NW22G36   30.33R WCI  26
GRINNELL *     CLOUDY    33  27  76 NW25G32   30.26R WCI  20
KNOXVILLE *    CLOUDY    36  25  64 NW23G32   30.28R WCI  24
MARSHALLTOWN   CLOUDY    33  25  72 NW20G36   30.27R WCI  21
NEWTON *       CLOUDY    34  27  75 NW24G33   30.29R WCI  21
PELLA *        PTSUNNY   35  27  72 NW25G33   30.31R WCI  23
PERRY *          N/A     34  25  69 N28       30.36R WCI  20
$$

IAZ004>006-015-016-023>025-035-036-292200-
   NORTH CENTRAL IOWA

CITY           SKY/WX    TMP DP  RH WIND       PRES   REMARKS
ALGONA *       CLOUDY    28  21  74 NW25G35   30.35R WCI  14
CLARION *      CLOUDY    30  25  80 NW25G35   30.31R WCI  16
ESTHERVILLE    CLOUDY    27  20  75 NW25G35   30.36R WCI  12
FORT DODGE *   CLOUDY    30  19  64 NW14G29   30.35R WCI  20
MASON CITY     CLOUDY    30  22  72 NW29G38   30.29R WCI  15
FOREST CITY *  CLOUDY    30  19  64 NW22G36   30.30R WCI  17
WEBSTER CITY * CLOUDY    32  27  80 NW26G39   30.31R WCI  18
IOWA FALLS *   CLOUDY    33  26  76 NW24G33   30.29R WCI  20
$$

IAZ007>011-017>019-026>030-037>042-050>054-066-292200-
   NORTHEAST IOWA

CITY           SKY/WX    TMP DP  RH WIND       PRES   REMARKS
CEDAR RAPIDS   CLOUDY    33  26  75 NW26G32   30.20R WCI  20
CHARLES CITY * CLOUDY    32  27  80 NW24G33   30.24R WCI  19
CLINTON *      CLOUDY    36  27  69 NW18G28   30.15R WCI  25
DECORAH *      CLOUDY    32  23  69 NW22G30   30.17R WCI  19
DUBUQUE        CLOUDY    34  26  72 NW21G30   30.12R WCI  22
MONTICELLO *   CLOUDY    34  28  80 NW21G31   30.16R WCI  22
OELWEIN *      CLOUDY    32  27  80 NW26      30.20R WCI  18
WATERLOO       CLOUDY    33  24  69 N25G33    30.23R WCI  20
$$

IAZ064-065-067-068-078-292200-
   EAST CENTRAL IOWA

CITY           SKY/WX    TMP DP  RH WIND       PRES   REMARKS
DAVENPORT      CLOUDY    34  28  79 NW18      30.15R WCI  23
IOWA CITY      CLOUDY    34  26  72 NW18      30.22R WCI  23
MT. PLEASANT * CLOUDY    33  26  76 NW22G29   30.24R WCI  20
MUSCATINE *    CLOUDY    36  28  75 NW17G24   30.21R WCI  25
QUAD CITIES    CLOUDY    35  29  78 NW18G26   30.15R WCI  24
$$

IAZ062-063-075>077-085>089-095>099-292200-
   SOUTHEAST IOWA

CITY           SKY/WX    TMP DP  RH WIND       PRES   REMARKS
BURLINGTON     CLOUDY    35  27  72 NW21G32   30.21R WCI  24
FAIRFIELD *    CLOUDY    34  27  75 NW23      30.25R WCI  22
FORT MADISON * CLOUDY    34  28  80 NW22      30.23R WCI  22
KEOKUK *       CLOUDY    36  28  75 NW16G28   30.24R WCI  26
OSKALOOSA *    CLOUDY    34  27  76 NW25G32   30.28R WCI  21
OTTUMWA        CLOUDY    35  25  66 NW26G38   30.27R WCI  22
WASHINGTON *   CLOUDY    34  30  86 NW26G37   30.24R WCI  21
$$

ABBREVIATIONS USED IN REMARKS
   TC - TEMPERATURES IN CELSIUS
  WCI - WIND CHILL INDEX
   HX - HEAT INDEX
  VSB - VISIBILITY
$$



USA.gov is the U.S. government's official web portal to all federal, state and local government web resources and services.